Probability
0 0 0 0 0 0 0 0 0 0 0 0 0 0 0 0 0 0 0 0 0 0 0 0 0 3 3 0 0 6 3 3 10 10 10 10 6 6 3 6 6 3 3 0
0 0 0 0 0 0 0 0 0 0 0 0 0 0 0 0 0 0 0 0 0 3 3 3 0 3 3 0 3 6 6 6 10 10 10 10 13 13 6 10 3 3 0 0
0 0 0 0 0 0 0 0 0 0 0 0 0 0 3 0 0 0 0 0 0 3 3 3 3 0 3 6 3 3 6 6 10 10 10 10 13 10 10 10 3 0 0 3
0 0 0 0 0 0 0 0 0 0 0 0 0 0 0 0 0 0 0 0 0 0 3 6 3 3 6 6 3 3 6 3 6 10 13 10 10 10 10 6 3 3 0 0
0 0 0 0 0 0 0 0 0 0 0 0 0 0 0 0 0 0 0 0 0 0 3 6 3 3 6 6 3 3 6 6 6 3 13 13 13 13 13 3 3 3 3 3
0 0 0 0 0 0 0 0 0 0 0 0 0 0 0 0 0 0 0 3 0 0 0 3 6 3 3 6 6 3 3 6 6 6 10 13 16 13 3 3 6 6 6 3
0 0 0 0 0 0 0 0 0 0 0 0 0 0 0 0 0 0 0 0 0 0 0 3 0 3 3 3 6 6 6 6 13 10 10 6 6 10 0 0 0 0 3 3
0 0 0 0 0 0 0 0 0 0 0 0 0 0 0 0 0 0 0 0 0 0 0 0 3 0 0 6 6 3 6 10 10 6 6 6 6 6 6 6 3 0 0 0
0 0 0 0 0 0 0 0 0 0 0 0 0 0 0 0 0 0 0 0 0 0 0 0 3 0 3 3 3 3 3 6 6 6 6 10 3 10 3 3 6 3 3 3
0 0 0 0 0 0 0 0 0 0 0 0 0 0 0 0 0 0 0 0 0 0 0 0 0 3 3 0 3 6 3 3 6 6 6 6 6 3 3 0 0 6 3 3
0 0 0 0 0 0 0 0 0 0 0 0 0 0 0 0 0 0 0 0 0 0 0 0 0 3 3 3 3 3 3 3 6 6 6 6 10 3 3 0 0 3 3 3
0 0 0 0 0 0 0 0 0 0 0 0 0 0 0 0 0 0 0 0 0 0 0 0 0 0 0 0 0 0 0 0 6 6 3 3 3 3 3 0 0 0 0 0
0 0 0 0 0 0 0 0 0 0 0 0 0 0 0 0 0 0 0 0 0 0 0 0 0 0 0 0 0 0 0 0 0 3 3 0 0 0 0 0 0 0 0 0
0 0 0 0 0 0 0 0 0 0 0 0 0 0 0 0 0 0 0 0 0 0 0 0 0 0 0 0 0 0 0 3 3 3 3 0 0 0 0 0 0 0 0 0
0 0 0 0 0 0 0 0 0 0 0 0 0 0 0 0 0 0 0 0 0 0 0 0 0 0 0 0 0 0 0 0 3 3 3 3 3 0 0 0 0 0 0 0
0 0 0 0 0 0 0 0 0 0 0 0 0 0 0 0 0 0 0 0 0 0 0 0 0 0 0 0 0 0 0 0 0 3 3 3 3 0 0 0 0 0 0 0
0 0 0 0 0 0 0 0 0 0 0 0 0 0 0 0 0 0 0 0 0 0 0 0 0 0 0 0 0 0 0 0 0 0 0 3 3 3 0 0 0 0 0 0
0 0 0 0 0 0 0 0 0 0 0 0 0 0 0 0 0 0 0 0 0 0 0 0 0 0 0 0 0 0 0 0 0 0 0 3 3 3 3 0 0 0 0 0
0 0 0 0 0 0 0 0 0 0 0 0 0 0 0 0 0 0 0 0 0 0 0 0 0 0 0 0 0 0 0 0 0 0 0 0 3 3 3 3 3 0 0 0
0 0 0 0 0 0 0 0 0 0 0 0 0 0 0 0 0 0 0 0 0 0 0 0 0 0 0 0 0 0 0 0 0 0 0 0 3 3 3 3 6 3 3 3
0 0 0 0 0 0 0 0 0 0 0 0 0 0 0 0 0 0 0 0 0 0 0 0 0 0 0 0 0 0 0 0 0 0 0 0 3 3 3 3 3 3 3 3
0 0 0 0 0 0 0 0 0 0 0 0 0 0 0 0 0 0 0 0 0 0 0 0 0 0 0 0 0 0 0 0 0 0 0 0 0 3 3 3 0 0 0 3
0 0 0 0 0 0 0 0 0 0 0 0 0 0 0 0 0 0 0 0 0 0 0 0 0 0 0 0 0 0 0 0 0 0 0 0 0 0 3 3 0 0 0 0
0 0 0 0 0 0 0 0 0 0 0 0 0 0 0 0 0 0 0 0 0 0 0 0 0 0 0 0 0 0 0 0 0 0 0 0 0 0 0 0 0 0 0 0
0 0 0 0 0 0 0 0 0 0 0 0 0 0 0 0 0 0 0 0 0 0 0 0 0 0 0 0 0 0 0 0 0 0 0 0 0 0 0 0 0 0 0 0
0 0 0 0 0 0 0 0 0 0 0 0 0 0 0 0 0 0 0 0 0 0 0 0 0 0 0 0 0 0 0 0 0 0 0 0 0 0 0 0 0 0 0 0
Height
5847 5848 5848 5849 5849 5850 5850 5850 5850 5850 5850 5850 5850 5850 5850 5849 5849 5849 5849 5849 5849 5849 5849 5849 5849 5849 5849 5849 5849 5849 5848 5848 5847 5847 5847 5846 5845 5845 5844 5844 5843 5843 5842 5842
5846 5846 5847 5847 5848 5848 5848 5848 5848 5848 5848 5848 5848 5848 5848 5847 5847 5847 5847 5846 5846 5846 5846 5846 5846 5846 5846 5845 5846 5845 5845 5845 5844 5844 5844 5843 5843 5842 5842 5842 5841 5841 5840 5840
5843 5845 5845 5845 5846 5846 5846 5847 5847 5847 5846 5845 5845 5845 5845 5845 5844 5844 5844 5843 5843 5843 5843 5842 5842 5842 5842 5842 5842 5842 5842 5841 5841 5840 5840 5840 5840 5839 5839 5839 5839 5838 5838 5837
5842 5842 5843 5843 5843 5844 5844 5844 5844 5844 5843 5843 5843 5842 5842 5842 5841 5841 5841 5840 5840 5839 5839 5839 5838 5838 5838 5838 5838 5838 5838 5838 5837 5836 5837 5837 5836 5836 5836 5836 5836 5835 5835 5834
5840 5840 5840 5841 5841 5841 5841 5841 5841 5841 5840 5840 5840 5840 5840 5838 5838 5838 5837 5837 5836 5836 5835 5835 5834 5834 5834 5834 5834 5833 5833 5833 5833 5832 5833 5833 5832 5832 5832 5832 5832 5832 5831 5831
5837 5838 5838 5838 5838 5838 5838 5838 5838 5837 5837 5838 5837 5837 5836 5835 5835 5834 5834 5833 5833 5832 5832 5831 5830 5830 5830 5830 5830 5829 5829 5829 5829 5828 5828 5828 5828 5828 5828 5828 5828 5828 5827 5827
5835 5835 5835 5835 5835 5835 5835 5836 5835 5834 5834 5835 5834 5834 5833 5832 5831 5831 5830 5830 5829 5828 5828 5827 5827 5826 5826 5826 5826 5825 5825 5824 5824 5824 5823 5824 5824 5823 5823 5823 5823 5823 5823 5823
5831 5831 5831 5831 5832 5832 5832 5832 5833 5833 5832 5832 5831 5830 5830 5828 5828 5827 5827 5826 5825 5824 5823 5823 5823 5822 5822 5821 5821 5821 5820 5820 5819 5819 5819 5818 5818 5818 5818 5818 5818 5818 5818 5818
5828 5828 5828 5828 5828 5829 5829 5829 5829 5829 5828 5828 5828 5828 5827 5825 5824 5823 5822 5821 5821 5820 5819 5819 5818 5817 5817 5817 5816 5816 5815 5815 5814 5813 5813 5813 5812 5812 5812 5812 5812 5812 5812 5812
5824 5825 5825 5824 5825 5825 5826 5825 5825 5825 5824 5824 5824 5823 5823 5821 5820 5819 5818 5817 5816 5816 5815 5814 5814 5813 5812 5812 5811 5810 5809 5809 5809 5808 5807 5806 5806 5806 5806 5806 5806 5806 5805 5805
5820 5821 5821 5821 5821 5821 5822 5821 5820 5820 5820 5820 5819 5821 5818 5817 5815 5814 5813 5812 5811 5810 5810 5809 5809 5808 5807 5806 5805 5805 5804 5803 5802 5802 5801 5800 5800 5799 5799 5799 5799 5799 5798 5798
5816 5817 5817 5817 5817 5816 5816 5817 5816 5817 5816 5815 5814 5817 5813 5812 5811 5809 5808 5807 5806 5805 5804 5804 5803 5802 5801 5801 5800 5799 5798 5796 5796 5795 5794 5793 5793 5792 5792 5792 5791 5791 5791 5791
5812 5813 5813 5812 5814 5813 5812 5812 5812 5811 5811 5810 5810 5812 5808 5806 5805 5804 5803 5801 5800 5800 5799 5798 5797 5797 5795 5795 5794 5793 5791 5790 5789 5788 5787 5786 5785 5785 5784 5784 5783 5783 5783 5782
5807 5808 5809 5809 5807 5807 5807 5807 5806 5806 5805 5805 5805 5804 5803 5800 5799 5799 5797 5796 5794 5793 5793 5792 5791 5790 5789 5788 5787 5785 5784 5783 5781 5780 5779 5778 5777 5777 5776 5775 5775 5774 5774 5774
5802 5803 5802 5802 5802 5801 5801 5801 5801 5800 5800 5799 5799 5797 5796 5794 5793 5792 5791 5790 5789 5787 5786 5785 5784 5783 5782 5781 5779 5778 5777 5775 5773 5772 5771 5770 5769 5768 5767 5767 5766 5766 5765 5764
5796 5797 5797 5797 5796 5795 5796 5796 5795 5794 5794 5793 5792 5791 5790 5788 5787 5786 5785 5784 5782 5781 5780 5778 5777 5776 5775 5774 5772 5771 5769 5768 5766 5764 5762 5761 5760 5759 5759 5758 5757 5757 5756 5755
5791 5791 5791 5791 5790 5789 5790 5790 5789 5788 5787 5786 5785 5785 5783 5782 5781 5779 5778 5777 5776 5775 5773 5771 5770 5769 5767 5766 5765 5763 5762 5760 5758 5756 5754 5753 5752 5751 5750 5749 5748 5747 5746 5745
5786 5785 5785 5785 5785 5784 5786 5784 5782 5781 5780 5779 5778 5777 5775 5775 5774 5773 5771 5770 5769 5768 5766 5765 5763 5762 5760 5759 5757 5755 5754 5752 5750 5748 5746 5744 5743 5741 5741 5740 5738 5737 5736 5735
5780 5780 5779 5779 5778 5777 5778 5777 5776 5775 5773 5772 5771 5770 5769 5768 5767 5765 5764 5763 5762 5760 5759 5757 5755 5754 5752 5750 5749 5747 5745 5743 5741 5739 5738 5735 5734 5732 5731 5730 5728 5727 5725 5724
5775 5774 5774 5773 5771 5771 5772 5770 5769 5769 5767 5766 5764 5763 5762 5761 5760 5759 5757 5756 5754 5753 5751 5749 5747 5746 5744 5742 5740 5738 5736 5734 5732 5730 5728 5726 5724 5723 5721 5719 5718 5716 5715 5713
5768 5768 5767 5766 5764 5764 5764 5763 5763 5762 5761 5758 5757 5755 5754 5753 5752 5751 5749 5748 5747 5745 5743 5741 5739 5737 5736 5733 5731 5729 5727 5725 5723 5721 5719 5717 5715 5713 5711 5709 5707 5705 5703 5702
5761 5761 5760 5759 5758 5759 5757 5756 5755 5754 5752 5750 5749 5748 5746 5745 5744 5743 5742 5740 5739 5737 5735 5733 5731 5729 5726 5724 5722 5720 5718 5716 5713 5711 5709 5707 5705 5703 5700 5698 5696 5694 5692 5690
5755 5754 5753 5753 5753 5751 5749 5748 5747 5746 5744 5743 5741 5740 5738 5737 5736 5735 5733 5732 5730 5728 5726 5724 5722 5719 5717 5714 5712 5710 5708 5705 5703 5701 5698 5696 5694 5692 5690 5688 5686 5683 5681 5679
5747 5747 5746 5745 5744 5743 5741 5740 5738 5737 5736 5734 5733 5732 5730 5729 5727 5726 5724 5723 5721 5719 5717 5714 5712 5710 5707 5704 5702 5699 5697 5694 5692 5689 5687 5685 5683 5681 5679 5677 5674 5672 5670 5667
5739 5739 5738 5737 5736 5734 5734 5732 5730 5729 5727 5726 5724 5723 5721 5719 5718 5717 5715 5713 5711 5709 5707 5705 5702 5700 5697 5694 5692 5689 5686 5683 5681 5678 5676 5674 5671 5669 5667 5665 5663 5660 5658 5655
5731 5730 5729 5728 5728 5726 5725 5723 5722 5720 5719 5717 5716 5714 5712 5710 5709 5707 5705 5703 5701 5699 5697 5694 5692 5689 5687 5684 5681 5678 5675 5672 5670 5667 5665 5662 5660 5658 5655 5653 5651 5648 5646 5644
Wind_Speed
6 6 7 7 7 8 8 9 10 10 10 11 11 11 12 11 12 12 12 12 13 13 13 13 14 14 13 13 13 13 14 14 14 14 13 13 12 12 12 12 11 11 12 12
7 8 8 8 9 9 9 10 11 11 11 11 11 11 11 12 13 13 13 14 15 14 15 15 15 15 15 14 14 14 14 14 14 14 14 13 13 13 13 12 12 12 12 13
8 8 9 9 9 9 10 10 11 11 12 12 12 11 11 12 14 14 14 15 16 16 16 16 16 16 16 16 15 15 14 14 14 14 14 14 14 13 13 13 13 13 13 14
9 9 9 10 10 10 10 11 12 12 12 12 13 13 13 13 14 15 14 15 15 16 16 16 16 16 16 16 16 16 15 15 15 15 15 15 15 15 15 15 14 14 14 15
10 10 11 11 11 11 12 12 12 12 13 12 13 14 13 14 15 15 15 15 16 15 15 15 15 15 15 15 15 16 16 15 15 16 16 16 16 16 16 16 16 16 16 16
12 12 13 12 12 12 12 13 13 12 12 12 12 14 14 15 16 16 16 16 16 15 15 16 16 16 15 14 14 15 16 16 16 16 17 17 17 17 17 17 17 16 17 17
13 14 14 14 13 13 13 13 12 12 11 12 12 15 16 16 17 17 16 16 16 16 16 16 16 16 15 15 15 16 17 17 17 17 17 17 18 18 18 18 18 18 18 18
14 14 14 14 14 14 13 13 12 12 11 12 13 15 17 17 18 18 18 17 17 17 17 16 16 16 16 16 16 17 18 19 19 19 19 19 19 20 20 20 20 20 20 20
13 14 14 15 15 15 14 14 14 14 14 14 15 15 17 18 19 20 19 18 18 18 18 18 17 17 17 18 18 18 19 20 20 20 20 21 21 21 22 22 22 22 22 22
14 14 14 16 16 16 16 16 15 16 16 16 15 17 18 19 20 20 20 20 20 20 19 19 19 19 19 19 19 20 21 21 22 22 22 23 23 23 23 24 24 24 23 23
15 15 15 16 16 16 16 17 17 17 17 17 17 18 19 20 21 22 22 21 21 20 21 21 21 21 21 21 22 22 23 23 24 24 24 25 25 25 25 25 26 25 25 25
16 17 17 16 17 17 17 17 17 18 18 19 20 21 21 22 23 23 23 23 22 22 22 23 23 23 23 23 23 24 25 26 26 26 26 26 27 27 27 27 27 27 27 27
17 17 17 17 18 17 17 17 18 19 20 21 21 21 22 23 23 24 24 24 23 23 23 24 24 24 24 25 25 26 27 27 27 28 28 27 27 27 28 28 29 29 29 28
17 18 17 18 19 18 19 19 19 20 21 22 21 22 22 23 24 24 24 25 25 25 24 25 25 25 25 26 27 28 27 28 28 28 28 29 28 28 29 29 30 30 30 30
19 19 19 19 20 21 21 21 22 22 22 23 22 23 23 24 25 24 24 26 26 26 26 26 26 27 27 28 28 28 28 28 28 28 29 29 29 29 29 29 29 30 31 31
20 20 21 21 21 23 23 22 23 23 23 23 24 24 24 25 25 24 25 26 26 27 27 27 27 27 28 28 28 28 28 28 29 29 29 29 29 30 30 30 30 31 31 32
21 21 21 21 22 24 23 21 22 23 23 24 25 25 24 25 25 25 25 25 26 27 27 27 27 27 28 28 29 29 29 29 30 30 30 30 30 31 31 31 31 32 32 33
21 21 22 22 23 24 23 22 22 23 23 23 24 25 26 26 25 25 24 25 26 27 28 28 29 29 29 29 30 30 30 30 31 30 31 31 32 32 32 33 33 33 33 34
21 21 22 23 23 24 23 23 23 24 23 23 24 25 26 27 27 26 26 26 26 28 28 29 29 30 30 30 30 31 31 32 32 32 32 32 33 33 34 34 34 34 35 35
22 23 24 24 25 25 25 24 24 25 26 26 26 27 27 27 28 27 27 27 27 28 29 29 29 29 30 30 31 31 32 32 33 33 33 32 33 34 34 35 35 36 36 37
23 24 24 24 25 26 26 25 25 26 27 27 27 27 28 27 27 28 28 28 29 30 30 30 30 31 32 32 33 32 33 33 33 34 34 34 34 34 35 35 35 36 37 37
25 25 24 25 26 27 27 27 27 27 28 28 28 29 29 28 29 30 30 30 31 31 32 32 32 32 33 34 34 34 34 34 35 35 35 35 35 35 35 36 36 36 36 37
26 26 26 26 27 28 29 30 30 30 30 30 29 30 30 30 30 31 32 32 32 33 33 33 33 34 35 35 35 36 36 36 36 37 36 36 36 36 37 37 37 37 38 38
28 27 28 28 28 28 29 29 30 31 32 32 31 32 32 32 32 33 33 33 33 34 35 35 35 36 36 36 37 37 37 37 38 37 37 36 36 37 37 38 38 39 39 38
29 29 29 30 30 31 30 31 32 32 32 32 32 32 33 33 34 34 34 35 35 35 35 35 36 36 37 37 37 37 37 38 38 37 37 37 38 38 38 39 39 39 39 38
30 30 31 31 32 32 32 32 32 33 33 33 33 33 33 34 34 34 35 36 36 37 37 37 37 37 37 38 38 38 38 38 38 37 37 37 37 38 39 40 39 39 38 38
Wind_Direction
249 248 248 251 253 256 258 266 274 279 284 284 284 282 282 280 281 281 281 282 283 284 281 282 282 281 280 280 281 283 285 288 289 291 294 295 295 295 294 292 291 293 294 294
256 253 253 254 255 258 259 265 273 278 282 287 288 284 284 285 285 286 284 282 283 286 285 282 281 280 281 280 279 281 284 287 288 287 287 288 288 291 293 292 291 292 294 295
264 261 259 256 258 258 262 268 274 277 284 287 288 284 282 285 286 287 286 284 284 284 285 284 282 281 281 281 280 279 282 283 284 283 283 284 285 288 290 293 293 292 293 295
260 266 260 260 261 261 264 268 274 278 281 285 287 288 285 285 286 288 288 286 285 285 284 282 280 280 281 281 279 277 278 281 281 282 283 284 284 286 287 289 290 291 293 295
263 264 264 264 265 264 267 271 275 279 281 282 283 287 289 286 288 289 289 287 288 288 286 283 282 280 281 281 279 277 276 277 280 283 283 283 283 284 284 285 286 288 290 292
266 268 267 268 268 269 270 272 273 277 282 286 284 285 287 287 287 289 290 289 288 288 287 285 283 282 281 282 281 280 279 278 279 283 282 281 282 282 283 284 285 286 288 289
270 269 269 269 268 268 269 272 278 282 286 289 282 283 287 284 285 289 290 288 285 285 284 282 283 282 281 282 283 282 281 280 280 282 282 282 281 280 281 281 282 283 285 286
272 273 271 270 270 270 271 272 274 277 278 279 278 280 285 285 287 288 287 287 285 282 282 282 283 282 281 283 285 284 283 282 282 281 281 281 281 280 279 279 280 281 282 284
270 274 274 273 273 272 270 272 274 272 273 276 277 279 281 282 283 285 286 287 284 282 281 280 281 282 282 282 284 285 284 283 281 282 281 279 280 279 278 278 278 279 282 282
267 269 270 272 271 270 271 272 272 274 277 276 278 281 278 280 281 283 286 286 285 282 279 278 279 280 280 281 283 284 285 284 282 283 284 281 280 280 278 277 278 278 279 280
264 266 268 271 272 273 273 273 272 274 277 277 279 278 279 282 284 284 284 285 283 282 281 278 279 280 279 280 283 286 284 284 283 284 283 282 280 281 279 277 278 277 278 280
266 265 267 271 273 276 276 275 275 275 277 276 277 280 278 280 284 285 285 282 281 281 281 280 280 281 281 281 283 284 284 285 284 283 282 282 281 280 280 279 277 278 279 279
267 266 267 269 272 275 276 275 274 275 277 278 278 279 278 281 285 286 286 285 283 281 280 280 279 280 281 283 284 286 285 285 285 284 282 282 282 281 281 280 279 278 278 278
266 264 265 268 272 275 277 278 277 276 276 278 277 278 279 282 284 284 284 284 283 283 282 280 280 280 281 283 284 285 285 284 285 285 283 283 282 280 280 280 279 278 278 278
268 264 263 265 269 271 275 276 277 278 279 280 279 278 281 281 281 282 283 284 284 284 283 283 282 282 283 284 285 285 285 285 287 286 284 283 282 280 281 282 281 280 279 279
272 269 267 269 270 271 274 277 278 279 279 279 279 277 278 279 280 282 283 284 285 286 287 286 284 284 283 283 284 285 286 287 288 286 284 284 283 282 282 282 281 281 280 280
274 272 272 274 274 274 276 281 281 280 279 280 280 280 278 279 280 282 283 284 285 284 287 288 287 286 285 285 285 285 287 288 288 287 284 284 283 282 283 283 282 282 282 282
275 274 275 277 276 277 279 281 283 283 281 279 278 278 278 278 281 281 282 283 285 285 287 288 288 287 287 287 287 286 287 288 289 288 286 285 284 283 283 282 282 282 282 282
274 274 275 278 278 279 281 281 281 282 282 280 279 279 279 280 280 280 279 282 283 285 287 287 287 287 287 288 288 287 286 286 287 288 288 287 285 284 284 283 283 283 282 281
275 275 276 277 279 280 282 282 282 281 282 282 282 281 279 279 279 280 281 283 284 285 286 287 288 287 287 288 289 288 287 287 287 288 289 290 288 286 286 285 284 284 283 281
276 276 276 276 277 279 282 284 285 283 283 283 283 282 280 278 279 281 283 285 285 286 287 288 288 287 287 288 290 291 289 288 288 288 288 289 289 288 287 287 287 287 286 285
278 279 278 277 277 279 282 283 283 285 285 285 284 283 283 281 280 282 284 285 287 288 288 289 289 289 288 289 290 290 290 289 289 288 288 288 288 288 288 288 288 288 288 287
275 276 277 277 279 281 282 283 283 284 284 285 285 284 283 283 282 283 284 285 286 287 287 288 289 290 290 290 290 290 289 289 289 287 287 288 289 288 288 288 289 289 289 288
271 272 274 275 277 279 281 282 283 283 284 285 285 284 283 283 283 283 283 284 285 286 287 288 289 290 291 291 291 291 290 289 290 289 288 287 288 288 288 287 287 288 288 288
273 274 274 275 276 276 278 280 282 282 282 283 284 284 284 283 283 284 284 284 285 286 287 289 290 290 291 291 291 291 290 291 291 289 288 287 287 288 289 289 288 288 288 288
272 273 274 275 276 277 279 279 280 281 282 283 283 284 284 284 284 284 285 285 286 287 288 289 290 291 292 292 291 291 291 291 290 290 289 289 288 287 289 290 290 289 288 286